contact:dominique.lefevre@mio.osupytheas.fr, maurice.libes@osupytheas.fr, didier.mallarino@osupytheas.fr
Project:EMSO http://www.emso-fr.org/EMSO-France
Depth: 2436.0 m
Title:EMSO Ligure Ouest : Data MII capteur AQUADOPP
Date,Latitude,Longitude,X_East,Y_North,Z_Up,Amplitude_X,Amplitude_Y,Amplitude_Z,Batterie,SoundSpeed,Heading,Pitch,Roll,Pressure,TIS,Speed,Direction
, degrees North, degrees East, m.s-1, m.s-1,m.s-1, 1, 1, 1, Volt, m.s-1, degree, degree, degree, dbar, degree_C, m.s-1, degree
2023-12-18T00:04:03,42.805,6.029,0.027,0.004,-0.028,107.0,105.0,103.0,13.4,1505.2,342.6,-0.7,1.8,2471.702,13.29,0.027,81.6
2023-12-18T00:07:03,42.805,6.029,-0.004,0.012,-0.017,106.0,106.0,103.0,13.3,1505.2,345.3,-0.7,1.8,2471.65,13.29,0.012,341.6
2023-12-18T00:10:03,42.805,6.029,-0.012,0.029,-0.018,105.0,105.0,104.0,13.4,1505.2,347.9,-0.7,1.8,2471.695,13.29,0.031,337.5
2023-12-18T00:13:03,42.805,6.029,0.007,0.011,-0.052,107.0,105.0,103.0,13.3,1505.2,350.9,-0.8,1.9,2471.649,13.29,0.013,32.5
2023-12-18T00:16:03,42.805,6.029,0.015,0.043,-0.005,105.0,106.0,103.0,13.4,1505.2,3.1,-0.8,1.8,2471.638,13.29,0.045,19.2
2023-12-18T00:19:03,42.805,6.029,-0.004,0.03,-0.004,105.0,107.0,103.0,13.4,1505.2,348.6,-0.8,1.8,2471.673,13.29,0.03,352.4
2023-12-18T00:22:03,42.805,6.029,0.007,0.03,-0.011,107.0,105.0,103.0,13.4,1505.2,346.6,-0.7,1.8,2471.611,13.29,0.03,13.1
2023-12-18T00:25:03,42.805,6.029,0.021,0.005,-0.025,104.0,106.0,103.0,13.4,1505.2,346.7,-0.7,1.8,2471.631,13.29,0.021,76.6
2023-12-18T00:28:03,42.805,6.029,0.018,0.018,-0.047,107.0,105.0,103.0,13.4,1505.2,357.6,-0.7,1.8,2471.618,13.29,0.025,45.0
2023-12-18T00:31:03,42.805,6.029,0.008,0.037,-0.002,106.0,105.0,103.0,13.4,1505.2,355.6,-0.8,1.8,2471.564,13.29,0.037,12.2
2023-12-18T00:34:03,42.805,6.029,0.016,0.015,-0.018,106.0,105.0,103.0,13.4,1505.2,358.4,-0.8,1.8,2471.583,13.29,0.021,46.9
2023-12-18T00:37:03,42.805,6.029,0.038,0.001,-0.006,105.0,105.0,103.0,13.3,1505.2,349.2,-0.7,1.8,2471.62,13.29,0.038,88.5
2023-12-18T00:40:03,42.805,6.029,-0.016,0.032,0.001,105.0,106.0,103.0,13.3,1505.2,344.3,-0.7,1.8,2471.612,13.29,0.035,333.4
2023-12-18T00:43:03,42.805,6.029,0.03,0.016,0.008,106.0,105.0,102.0,13.4,1505.2,349.1,-0.8,1.8,2471.587,13.29,0.034,61.9
2023-12-18T00:46:03,42.805,6.029,-0.018,0.033,-0.038,106.0,106.0,103.0,13.4,1505.2,344.8,-0.8,1.8,2471.667,13.29,0.037,331.4
2023-12-18T00:49:03,42.805,6.029,-0.011,0.015,-0.042,106.0,106.0,104.0,13.4,1505.2,355.8,-0.8,1.8,2471.605,13.29,0.018,323.7
2023-12-18T00:52:03,42.805,6.029,0.013,0.005,-0.046,105.0,107.0,103.0,13.3,1505.2,3.2,-0.8,1.8,2471.61,13.29,0.013,69.0
2023-12-18T00:55:03,42.805,6.029,0.011,0.029,-0.019,107.0,105.0,103.0,13.4,1505.2,353.8,-0.7,1.8,2471.606,13.29,0.031,20.8
2023-12-18T00:58:03,42.805,6.029,0.001,0.008,-0.019,106.0,106.0,103.0,13.4,1505.2,2.5,-0.8,1.8,2471.589,13.29,0.008,7.1
2023-12-18T01:04:03,42.805,6.029,-0.006,-0.003,0.02,106.0,106.0,103.0,13.4,1505.2,351.1,-0.8,1.8,2471.624,13.29,0.006,243.4
2023-12-18T01:07:03,42.805,6.029,-0.007,0.009,-0.019,107.0,106.0,104.0,13.4,1505.2,340.0,-0.8,1.8,2471.609,13.29,0.011,322.1
2023-12-18T01:10:03,42.805,6.029,-0.008,0.007,0.016,107.0,106.0,103.0,13.3,1505.2,346.5,-0.8,1.8,2471.638,13.29,0.01,311.2
2023-12-18T01:13:03,42.805,6.029,-0.016,-0.005,-0.004,105.0,104.0,103.0,13.3,1505.2,356.2,-0.7,1.8,2471.641,13.29,0.016,252.6
2023-12-18T01:16:03,42.805,6.029,0.011,0.021,-0.01,107.0,105.0,104.0,13.4,1505.2,343.1,-0.8,1.8,2471.622,13.29,0.023,27.6
2023-12-18T01:19:03,42.805,6.029,0.011,0.018,-0.031,105.0,107.0,104.0,13.4,1505.2,357.6,-0.8,1.8,2471.615,13.29,0.021,31.4
2023-12-18T01:22:03,42.805,6.029,-0.021,0.026,-0.02,106.0,105.0,103.0,13.4,1505.2,356.6,-0.8,1.8,2471.651,13.29,0.033,321.1
2023-12-18T01:25:03,42.805,6.029,-0.003,0.018,-0.041,107.0,105.0,103.0,13.4,1505.2,341.5,-0.8,1.8,2471.587,13.29,0.018,350.5
2023-12-18T01:28:03,42.805,6.029,0.019,0.014,-0.014,105.0,105.0,103.0,13.4,1505.2,358.2,-0.8,1.8,2471.602,13.29,0.023,53.6
2023-12-18T01:31:03,42.805,6.029,0.023,0.012,0.015,105.0,105.0,103.0,13.4,1505.2,341.0,-0.7,1.8,2471.61,13.29,0.025,62.4
2023-12-18T01:34:03,42.805,6.029,0.018,0.011,0.008,107.0,106.0,102.0,13.4,1505.2,1.6,-0.8,1.8,2471.613,13.29,0.021,58.6
2023-12-18T01:37:03,42.805,6.029,0.003,0.01,-0.016,109.0,105.0,104.0,13.3,1505.2,355.5,-0.8,1.8,2471.612,13.29,0.01,16.7
2023-12-18T01:40:03,42.805,6.029,0.027,0.007,-0.025,107.0,106.0,102.0,13.3,1505.2,0.0,-0.8,1.8,2471.581,13.29,0.027,75.5
2023-12-18T01:43:03,42.805,6.029,0.0,0.016,-0.008,104.0,106.0,102.0,13.4,1505.2,340.3,-0.8,1.9,2471.62,13.29,0.016,0.0
2023-12-18T01:46:03,42.805,6.029,0.006,0.018,-0.045,107.0,105.0,102.0,13.3,1505.2,347.2,-0.8,1.8,2471.587,13.29,0.018,18.4
2023-12-18T01:49:03,42.805,6.029,0.016,0.009,-0.018,106.0,105.0,104.0,13.4,1505.2,351.6,-0.7,1.8,2471.619,13.29,0.018,60.6
2023-12-18T01:52:03,42.805,6.029,0.0,0.03,-0.013,105.0,107.0,103.0,13.4,1505.2,355.7,-0.8,1.8,2471.6,13.29,0.03,0.0
2023-12-18T01:55:03,42.805,6.029,0.009,0.017,-0.033,107.0,104.0,103.0,13.3,1505.2,356.5,-0.8,1.8,2471.606,13.29,0.019,27.9
2023-12-18T01:58:03,42.805,6.029,0.009,-0.015,-0.006,106.0,105.0,104.0,13.4,1505.2,343.4,-0.7,1.8,2471.588,13.29,0.017,149.0
2023-12-18T02:04:03,42.805,6.029,-0.011,0.022,-0.024,106.0,105.0,103.0,13.4,1505.2,341.0,-0.7,1.8,2471.615,13.29,0.024,333.4
2023-12-18T02:07:03,42.805,6.029,0.007,0.016,-0.031,106.0,106.0,104.0,13.4,1505.2,346.5,-0.8,1.8,2471.617,13.29,0.017,23.6
2023-12-18T02:10:03,42.805,6.029,-0.008,0.025,-0.017,105.0,107.0,103.0,13.4,1505.2,341.5,-0.8,1.8,2471.615,13.29,0.026,342.3
2023-12-18T02:13:03,42.805,6.029,0.002,0.01,-0.035,106.0,105.0,103.0,13.4,1505.2,348.3,-0.8,1.8,2471.625,13.29,0.01,11.3
2023-12-18T02:16:03,42.805,6.029,0.003,0.011,-0.006,107.0,107.0,104.0,13.4,1505.2,1.5,-0.8,1.8,2471.632,13.29,0.011,15.3
2023-12-18T02:19:03,42.805,6.029,0.001,0.015,-0.038,106.0,106.0,103.0,13.3,1505.2,354.4,-0.7,1.8,2471.592,13.29,0.015,3.8
2023-12-18T02:22:03,42.805,6.029,0.003,0.037,0.004,105.0,105.0,104.0,13.4,1505.2,359.2,-0.8,1.8,2471.613,13.29,0.037,4.6
2023-12-18T02:25:03,42.805,6.029,0.0,0.017,-0.005,106.0,105.0,103.0,13.4,1505.2,349.6,-0.8,1.8,2471.583,13.29,0.017,0.0
2023-12-18T02:28:03,42.805,6.029,-0.011,0.033,-0.033,106.0,106.0,103.0,13.3,1505.2,0.7,-0.8,1.8,2471.583,13.29,0.034,341.6
2023-12-18T02:31:03,42.805,6.029,-0.001,0.009,0.014,106.0,105.0,104.0,13.3,1505.2,337.9,-0.8,1.8,2471.595,13.3,0.009,353.7
2023-12-18T02:34:03,42.805,6.029,-0.007,0.021,-0.017,106.0,106.0,103.0,13.4,1505.2,344.9,-0.8,1.8,2471.6,13.3,0.022,341.6
2023-12-18T02:37:03,42.805,6.029,-0.017,0.007,-0.023,106.0,105.0,103.0,13.3,1505.2,350.7,-0.8,1.8,2471.59,13.3,0.018,292.4
2023-12-18T02:40:03,42.805,6.029,0.008,0.002,-0.011,107.0,105.0,103.0,13.4,1505.2,344.6,-0.8,1.8,2471.597,13.3,0.008,76.0
2023-12-18T02:43:03,42.805,6.029,-0.006,0.02,-0.025,106.0,106.0,103.0,13.3,1505.2,348.2,-0.8,1.8,2471.601,13.29,0.02,343.3
2023-12-18T02:46:03,42.805,6.029,-0.007,0.036,-0.006,105.0,105.0,103.0,13.3,1505.2,355.7,-0.8,1.8,2471.593,13.3,0.036,349.0
2023-12-18T02:49:03,42.805,6.029,0.008,-0.004,-0.036,106.0,106.0,103.0,13.3,1505.2,358.4,-0.8,1.8,2471.567,13.3,0.008,116.6
2023-12-18T02:52:03,42.805,6.029,-0.005,0.024,-0.01,106.0,106.0,103.0,13.4,1505.2,351.4,-0.8,1.8,2471.578,13.3,0.024,348.2
2023-12-18T02:55:03,42.805,6.029,0.01,-0.002,-0.001,109.0,105.0,103.0,13.3,1505.2,355.4,-0.8,1.8,2471.567,13.3,0.01,101.3
2023-12-18T02:58:03,42.805,6.029,-0.007,0.001,-0.018,106.0,106.0,103.0,13.3,1505.2,354.2,-0.8,1.8,2471.593,13.3,0.007,278.1
2023-12-18T03:04:03,42.805,6.029,0.012,0.016,-0.021,104.0,105.0,103.0,13.3,1505.2,355.2,-0.8,1.8,2471.65,13.29,0.02,36.9
2023-12-18T03:07:03,42.805,6.029,0.004,0.04,0.005,106.0,106.0,103.0,13.4,1505.2,359.1,-0.7,1.8,2471.594,13.29,0.04,5.7
2023-12-18T03:10:03,42.805,6.029,-0.017,0.037,-0.02,105.0,107.0,103.0,13.4,1505.2,339.6,-0.8,1.8,2471.582,13.29,0.04,335.3
2023-12-18T03:13:03,42.805,6.029,0.013,0.007,-0.037,106.0,105.0,102.0,13.4,1505.2,346.3,-0.8,1.8,2471.536,13.29,0.014,61.7
2023-12-18T03:16:03,42.805,6.029,0.012,0.013,-0.008,107.0,107.0,102.0,13.4,1505.2,354.1,-0.7,1.8,2471.578,13.29,0.017,42.7
2023-12-18T03:19:03,42.805,6.029,0.024,0.029,-0.026,106.0,106.0,102.0,13.4,1505.2,352.4,-0.8,1.8,2471.609,13.29,0.037,39.6
2023-12-18T03:22:03,42.805,6.029,0.003,0.01,-0.052,106.0,106.0,102.0,13.4,1505.2,353.8,-0.7,1.8,2471.556,13.29,0.01,16.7
2023-12-18T03:25:03,42.805,6.029,-0.006,0.04,-0.025,106.0,105.0,102.0,13.3,1505.2,356.5,-0.8,1.8,2471.569,13.29,0.04,351.5
2023-12-18T03:28:03,42.805,6.029,0.005,0.011,-0.011,106.0,104.0,102.0,13.3,1505.2,342.0,-0.8,1.8,2471.589,13.29,0.012,24.4
2023-12-18T03:31:03,42.805,6.029,0.012,0.019,-0.01,106.0,105.0,103.0,13.4,1505.2,350.9,-0.8,1.8,2471.542,13.29,0.022,32.3
2023-12-18T03:34:03,42.805,6.029,0.009,0.013,-0.02,106.0,104.0,103.0,13.3,1505.2,351.7,-0.8,1.8,2471.558,13.29,0.015,34.7
2023-12-18T03:37:03,42.805,6.029,-0.006,0.012,-0.034,106.0,106.0,104.0,13.3,1505.2,355.0,-0.8,1.8,2471.542,13.29,0.013,333.4
2023-12-18T03:40:03,42.805,6.029,-0.016,0.025,-0.004,106.0,106.0,105.0,13.3,1505.2,357.3,-0.8,1.8,2471.544,13.29,0.029,327.4
2023-12-18T03:43:03,42.805,6.029,-0.018,0.012,-0.003,107.0,105.0,103.0,13.3,1505.2,346.5,-0.8,1.8,2471.573,13.29,0.021,303.7
2023-12-18T03:46:03,42.805,6.029,0.0,0.001,-0.015,106.0,106.0,103.0,13.4,1505.2,346.7,-0.8,1.8,2471.551,13.29,0.001,0.0
2023-12-18T03:49:03,42.805,6.029,0.003,0.01,-0.042,106.0,105.0,103.0,13.4,1505.2,346.5,-0.8,1.8,2471.582,13.29,0.01,16.7
2023-12-18T03:52:03,42.805,6.029,0.001,0.026,0.009,106.0,105.0,104.0,13.3,1505.2,347.5,-0.8,1.9,2471.535,13.29,0.026,2.2
2023-12-18T03:55:03,42.805,6.029,0.009,0.024,-0.027,106.0,106.0,103.0,13.3,1505.2,2.5,-0.8,1.8,2471.542,13.29,0.025,20.6
2023-12-18T03:58:03,42.805,6.029,-0.013,0.01,-0.018,106.0,107.0,103.0,13.3,1505.2,357.4,-0.8,1.8,2471.561,13.29,0.016,307.6
2023-12-18T04:04:03,42.805,6.029,-0.007,0.008,-0.015,107.0,107.0,103.0,13.3,1505.2,345.7,-0.8,1.8,2471.579,13.29,0.01,318.8
2023-12-18T04:07:03,42.805,6.029,0.0,0.012,-0.008,106.0,105.0,103.0,13.3,1505.2,339.3,-0.8,1.8,2471.602,13.29,0.012,0.0
2023-12-18T04:10:03,42.805,6.029,-0.002,0.013,-0.023,105.0,106.0,102.0,13.3,1505.2,344.6,-0.8,1.8,2471.567,13.29,0.013,351.3
2023-12-18T04:13:03,42.805,6.029,-0.018,-0.003,-0.011,107.0,107.0,102.0,13.3,1505.2,352.4,-0.7,1.8,2471.569,13.29,0.018,260.5
2023-12-18T04:16:03,42.805,6.029,0.02,0.019,-0.023,107.0,106.0,102.0,13.4,1505.2,356.8,-0.8,1.8,2471.563,13.29,0.027,46.5
2023-12-18T04:19:03,42.805,6.029,-0.001,0.026,-0.039,106.0,106.0,103.0,13.4,1505.2,0.8,-0.8,1.8,2471.58,13.29,0.026,357.8
2023-12-18T04:22:03,42.805,6.029,0.009,0.027,0.009,106.0,105.0,102.0,13.4,1505.2,351.1,-0.8,1.8,2471.558,13.29,0.028,18.4
2023-12-18T04:25:03,42.805,6.029,-0.006,0.01,-0.022,106.0,106.0,104.0,13.4,1505.2,359.1,-0.8,1.8,2471.553,13.29,0.011,329.0
2023-12-18T04:28:03,42.805,6.029,-0.005,0.011,-0.035,106.0,106.0,103.0,13.3,1505.2,348.2,-0.8,1.8,2471.544,13.29,0.012,335.6
2023-12-18T04:31:03,42.805,6.029,-0.001,0.023,-0.024,105.0,107.0,103.0,13.4,1505.2,356.4,-0.7,1.8,2471.54,13.29,0.023,357.5
2023-12-18T04:34:03,42.805,6.029,-0.014,0.045,-0.008,106.0,105.0,104.0,13.3,1505.2,338.4,-0.8,1.8,2471.558,13.29,0.047,342.7
2023-12-18T04:37:03,42.805,6.029,-0.017,0.037,-0.011,106.0,106.0,102.0,13.3,1505.2,354.8,-0.8,1.8,2471.559,13.29,0.04,335.3
2023-12-18T04:40:03,42.805,6.029,-0.008,0.035,-0.007,105.0,106.0,103.0,13.4,1505.2,356.2,-0.8,1.8,2471.533,13.29,0.035,347.1
2023-12-18T04:43:03,42.805,6.029,-0.008,0.034,-0.012,105.0,107.0,103.0,13.3,1505.2,350.4,-0.8,1.8,2471.521,13.29,0.034,346.8
2023-12-18T04:46:03,42.805,6.029,-0.015,0.017,-0.047,106.0,107.0,103.0,13.4,1505.2,342.5,-0.7,1.8,2471.534,13.29,0.022,318.6
2023-12-18T04:49:03,42.805,6.029,0.017,0.028,0.008,106.0,105.0,102.0,13.3,1505.2,350.3,-0.8,1.8,2471.552,13.29,0.032,31.3
2023-12-18T04:52:03,42.805,6.029,-0.013,0.019,-0.015,106.0,106.0,104.0,13.4,1505.2,340.3,-0.7,1.8,2471.547,13.29,0.023,325.6
2023-12-18T04:55:03,42.805,6.029,-0.019,0.026,-0.01,106.0,106.0,103.0,13.4,1505.2,345.9,-0.7,1.8,2471.532,13.29,0.032,323.8
2023-12-18T04:58:03,42.805,6.029,0.0,0.009,-0.032,105.0,105.0,103.0,13.4,1505.2,344.6,-0.7,1.8,2471.561,13.29,0.009,0.0
2023-12-18T05:04:03,42.805,6.029,-0.003,0.029,-0.025,106.0,105.0,103.0,13.4,1505.2,350.7,-0.8,1.8,2471.539,13.29,0.029,354.1
2023-12-18T05:07:03,42.805,6.029,-0.016,-0.002,-0.024,107.0,105.0,103.0,13.3,1505.2,356.5,-0.7,1.8,2471.585,13.29,0.016,262.9
2023-12-18T05:10:03,42.805,6.029,0.007,0.034,0.003,106.0,105.0,103.0,13.4,1505.2,349.5,-0.8,1.8,2471.556,13.29,0.034,11.6
2023-12-18T05:13:03,42.805,6.029,0.003,0.016,-0.017,105.0,104.0,103.0,13.3,1505.2,345.5,-0.8,1.8,2471.566,13.29,0.016,10.6
2023-12-18T05:16:03,42.805,6.029,-0.004,0.015,-0.047,107.0,103.0,103.0,13.3,1505.2,339.6,-0.8,1.8,2471.52,13.29,0.015,345.1
2023-12-18T05:19:03,42.805,6.029,-0.001,0.024,-0.011,105.0,105.0,103.0,13.4,1505.2,355.1,-0.8,1.8,2471.569,13.29,0.024,357.6
2023-12-18T05:22:03,42.805,6.029,0.006,0.016,-0.045,104.0,106.0,104.0,13.4,1505.2,344.3,-0.8,1.8,2471.526,13.29,0.017,20.6
2023-12-18T05:25:03,42.805,6.029,0.008,0.024,-0.015,105.0,105.0,103.0,13.4,1505.2,344.3,-0.8,1.8,2471.553,13.29,0.025,18.4
2023-12-18T05:28:03,42.805,6.029,-0.013,0.026,-0.005,107.0,106.0,103.0,13.3,1505.2,340.7,-0.8,1.8,2471.536,13.29,0.029,333.4
2023-12-18T05:31:03,42.805,6.029,-0.006,0.025,-0.013,106.0,105.0,103.0,13.4,1505.2,0.8,-0.8,1.8,2471.522,13.29,0.025,346.5
2023-12-18T05:34:03,42.805,6.029,-0.002,0.014,-0.013,105.0,105.0,103.0,13.4,1505.2,356.8,-0.8,1.8,2471.545,13.29,0.014,351.9
2023-12-18T05:37:03,42.805,6.029,-0.006,0.029,-0.006,106.0,105.0,103.0,13.4,1505.2,0.7,-0.7,1.8,2471.564,13.29,0.029,348.3
2023-12-18T05:40:03,42.805,6.029,-0.004,0.035,-0.005,105.0,106.0,103.0,13.4,1505.2,357.4,-0.7,1.8,2471.541,13.29,0.035,353.5
2023-12-18T05:43:03,42.805,6.029,-0.013,0.03,0.002,105.0,105.0,103.0,13.4,1505.2,349.4,-0.8,1.8,2471.526,13.29,0.032,336.6
2023-12-18T05:46:03,42.805,6.029,-0.007,0.041,0.012,106.0,106.0,103.0,13.4,1505.2,349.6,-0.8,1.8,2471.537,13.29,0.041,350.3
2023-12-18T05:49:03,42.805,6.029,-0.002,0.045,0.007,107.0,105.0,103.0,13.4,1505.2,352.9,-0.8,1.8,2471.514,13.29,0.045,357.5
2023-12-18T05:52:03,42.805,6.029,-0.022,0.025,-0.018,105.0,105.0,103.0,13.4,1505.2,350.3,-0.7,1.8,2471.568,13.29,0.033,318.7
2023-12-18T05:55:03,42.805,6.029,-0.007,0.034,-0.009,106.0,106.0,102.0,13.4,1505.2,344.3,-0.7,1.8,2471.517,13.29,0.034,348.4
2023-12-18T05:58:03,42.805,6.029,-0.01,0.03,0.007,105.0,105.0,103.0,13.4,1505.2,342.0,-0.7,1.8,2471.53,13.29,0.031,341.6
2023-12-18T06:04:03,42.805,6.029,-0.013,0.037,0.0,105.0,105.0,103.0,13.3,1505.2,353.7,-0.8,1.8,2471.591,13.29,0.039,340.6
2023-12-18T06:07:03,42.805,6.029,-0.005,0.021,-0.023,106.0,106.0,102.0,13.4,1505.2,354.8,-0.8,1.8,2471.565,13.29,0.021,346.6
2023-12-18T06:10:03,42.805,6.029,-0.01,0.047,0.007,106.0,106.0,103.0,13.4,1505.2,0.0,-0.8,1.8,2471.564,13.29,0.048,348.0
2023-12-18T06:13:03,42.805,6.029,0.0,0.018,-0.044,106.0,105.0,103.0,13.4,1505.2,351.1,-0.8,1.8,2471.621,13.29,0.018,0.0
2023-12-18T06:16:03,42.805,6.029,-0.013,0.022,0.011,106.0,106.0,104.0,13.3,1505.2,344.3,-0.8,1.8,2471.545,13.29,0.025,329.4
2023-12-18T06:19:03,42.805,6.029,-0.014,0.008,-0.019,107.0,105.0,103.0,13.4,1505.2,348.6,-0.7,1.8,2471.559,13.29,0.016,299.7
2023-12-18T06:22:03,42.805,6.029,-0.017,0.038,-0.007,106.0,105.0,103.0,13.4,1505.2,352.8,-0.8,1.8,2471.544,13.29,0.041,335.9
2023-12-18T06:25:03,42.805,6.029,-0.021,0.016,-0.045,107.0,108.0,104.0,13.3,1505.2,339.8,-0.8,1.8,2471.614,13.29,0.026,307.3
2023-12-18T06:28:03,42.805,6.029,-0.005,0.016,-0.001,106.0,105.0,103.0,13.3,1505.2,358.2,-0.8,1.8,2471.571,13.29,0.016,342.6
2023-12-18T06:31:03,42.805,6.029,-0.043,0.03,-0.007,106.0,105.0,103.0,13.4,1505.2,339.2,-0.8,1.8,2471.538,13.29,0.052,304.9
2023-12-18T06:34:03,42.805,6.029,-0.015,0.016,-0.032,106.0,106.0,103.0,13.3,1505.2,1.6,-0.7,1.8,2471.571,13.29,0.021,316.9
2023-12-18T06:37:03,42.805,6.029,-0.026,0.026,-0.019,106.0,105.0,103.0,13.4,1505.2,340.5,-0.8,1.8,2471.555,13.29,0.036,315.0
2023-12-18T06:40:03,42.805,6.029,0.006,0.016,-0.025,106.0,106.0,103.0,13.4,1505.2,353.8,-0.8,1.8,2471.594,13.29,0.017,20.6
2023-12-18T06:43:03,42.805,6.029,-0.014,0.033,-0.022,105.0,106.0,102.0,13.4,1505.2,344.8,-0.7,1.8,2471.578,13.29,0.035,337.0
2023-12-18T06:46:03,42.805,6.029,-0.015,0.015,-0.035,106.0,105.0,102.0,13.4,1505.2,348.2,-0.7,1.8,2471.56,13.29,0.021,315.0
2023-12-18T06:49:03,42.805,6.029,-0.014,0.027,-0.019,106.0,105.0,103.0,13.4,1505.2,356.9,-0.7,1.8,2471.574,13.29,0.03,332.6
2023-12-18T06:52:03,42.805,6.029,-0.009,0.033,-0.047,107.0,105.0,104.0,13.4,1505.2,355.1,-0.7,1.8,2471.567,13.29,0.034,344.7
2023-12-18T06:55:03,42.805,6.029,-0.03,0.035,0.018,106.0,106.0,103.0,13.3,1505.2,341.5,-0.7,1.8,2471.568,13.29,0.046,319.4
2023-12-18T06:58:03,42.805,6.029,-0.019,-0.002,-0.02,107.0,106.0,102.0,13.4,1505.2,346.7,-0.8,1.9,2471.578,13.29,0.019,264.0
2023-12-18T07:04:03,42.805,6.029,-0.004,0.029,-0.003,107.0,107.0,102.0,13.4,1505.2,352.3,-0.8,1.8,2471.625,13.29,0.029,352.2
2023-12-18T07:07:03,42.805,6.029,-0.011,0.028,-0.006,107.0,106.0,103.0,13.4,1505.2,359.2,-0.8,1.8,2471.62,13.29,0.03,338.6
2023-12-18T07:10:03,42.805,6.029,-0.001,0.039,-0.033,106.0,107.0,105.0,13.4,1505.2,355.7,-0.8,1.8,2471.61,13.29,0.039,358.5
2023-12-18T07:13:03,42.805,6.029,0.005,0.032,-0.018,106.0,104.0,103.0,13.4,1505.2,3.9,-0.8,1.8,2471.608,13.29,0.032,8.9
2023-12-18T07:16:03,42.805,6.029,-0.003,0.024,-0.032,105.0,106.0,103.0,13.4,1505.2,355.6,-0.8,1.8,2471.58,13.29,0.024,352.9
2023-12-18T07:19:03,42.805,6.029,0.007,0.019,-0.015,106.0,106.0,103.0,13.4,1505.2,347.0,-0.8,1.8,2471.61,13.29,0.02,20.2
2023-12-18T07:22:03,42.805,6.029,-0.02,0.034,-0.027,106.0,106.0,102.0,13.4,1505.2,347.3,-0.8,1.8,2471.573,13.29,0.039,329.5
2023-12-18T07:25:03,42.805,6.029,-0.021,0.031,-0.011,106.0,105.0,104.0,13.4,1505.2,346.1,-0.8,1.8,2471.637,13.29,0.037,325.9
2023-12-18T07:28:03,42.805,6.029,-0.002,0.028,-0.013,108.0,105.0,104.0,13.4,1505.2,347.3,-0.8,1.8,2471.595,13.29,0.028,355.9
2023-12-18T07:31:03,42.805,6.029,-0.015,0.024,-0.014,106.0,105.0,103.0,13.3,1505.2,345.2,-0.8,1.8,2471.598,13.29,0.028,328.0
2023-12-18T07:34:03,42.805,6.029,0.006,0.042,-0.002,105.0,108.0,103.0,13.4,1505.2,353.4,-0.7,1.8,2471.618,13.29,0.042,8.1
2023-12-18T07:37:03,42.805,6.029,0.01,0.028,-0.001,107.0,105.0,104.0,13.4,1505.2,355.5,-0.7,1.9,2471.62,13.29,0.029,19.6
2023-12-18T07:40:03,42.805,6.029,0.0,0.033,0.005,106.0,106.0,102.0,13.4,1505.2,356.8,-0.7,1.8,2471.61,13.29,0.033,0.0
2023-12-18T07:43:03,42.805,6.029,-0.034,0.041,-0.011,107.0,106.0,103.0,13.3,1505.2,358.2,-0.8,1.8,2471.629,13.29,0.053,320.3
2023-12-18T07:46:03,42.805,6.029,-0.036,0.05,-0.012,106.0,106.0,102.0,13.4,1505.2,339.0,-0.7,1.8,2471.653,13.29,0.061,324.2
2023-12-18T07:49:03,42.805,6.029,-0.001,0.024,-0.011,107.0,106.0,104.0,13.4,1505.2,345.9,-0.8,1.8,2471.641,13.29,0.024,357.6
2023-12-18T07:52:03,42.805,6.029,-0.029,0.037,-0.01,106.0,106.0,103.0,13.3,1505.2,340.0,-0.8,1.8,2471.643,13.29,0.047,321.9
2023-12-18T07:55:03,42.805,6.029,0.007,0.03,-0.031,107.0,105.0,103.0,13.4,1505.2,346.3,-0.8,1.8,2471.598,13.29,0.03,13.1
2023-12-18T07:58:03,42.805,6.029,0.001,0.049,-0.024,107.0,108.0,103.0,13.3,1505.2,344.5,-0.8,1.8,2471.655,13.29,0.049,1.2
2023-12-18T08:04:03,42.805,6.029,0.0,0.039,-0.001,107.0,106.0,103.0,13.4,1505.2,350.2,-0.8,1.8,2471.677,13.29,0.039,0.0
2023-12-18T08:07:03,42.805,6.029,-0.024,0.042,0.007,105.0,106.0,104.0,13.3,1505.2,353.2,-0.8,1.8,2471.667,13.29,0.048,330.3
2023-12-18T08:10:03,42.805,6.029,-0.022,0.035,-0.036,106.0,107.0,103.0,13.3,1505.2,342.5,-0.8,1.9,2471.674,13.29,0.041,327.8
2023-12-18T08:13:03,42.805,6.029,-0.003,0.043,0.013,107.0,106.0,103.0,13.4,1505.2,350.9,-0.8,1.8,2471.655,13.29,0.043,356.0
2023-12-18T08:16:03,42.805,6.029,-0.005,0.033,-0.028,106.0,108.0,103.0,13.4,1505.2,350.2,-0.8,1.8,2471.677,13.29,0.033,351.4
2023-12-18T08:19:03,42.805,6.029,-0.019,0.048,-0.013,106.0,107.0,103.0,13.3,1505.2,358.2,-0.8,1.8,2471.681,13.29,0.051,338.4
2023-12-18T08:22:03,42.805,6.029,-0.024,0.029,-0.045,106.0,105.0,103.0,13.4,1505.2,339.6,-0.8,1.8,2471.669,13.29,0.037,320.4
2023-12-18T08:25:03,42.805,6.029,-0.004,0.03,-0.02,107.0,106.0,103.0,13.4,1505.2,357.3,-0.8,1.8,2471.665,13.29,0.03,352.4
2023-12-18T08:28:03,42.805,6.029,-0.026,0.023,-0.023,105.0,106.0,103.0,13.3,1505.2,341.8,-0.8,1.8,2471.673,13.29,0.034,311.5
2023-12-18T08:31:03,42.805,6.029,0.0,0.047,0.006,106.0,105.0,104.0,13.4,1505.2,353.0,-0.8,1.8,2471.639,13.29,0.047,0.0
2023-12-18T08:34:03,42.805,6.029,-0.004,0.04,0.023,106.0,107.0,103.0,13.4,1505.2,356.5,-0.8,1.8,2471.685,13.29,0.04,354.3
2023-12-18T08:37:03,42.805,6.029,-0.015,0.028,-0.032,107.0,106.0,104.0,13.4,1505.2,357.6,-0.8,1.8,2471.701,13.29,0.031,331.8
2023-12-18T08:40:03,42.805,6.029,-0.01,0.026,-0.037,107.0,106.0,103.0,13.3,1505.2,346.3,-0.8,1.8,2471.722,13.29,0.027,339.0
2023-12-18T08:43:03,42.805,6.029,-0.011,0.046,0.0,106.0,106.0,104.0,13.4,1505.2,338.7,-0.8,1.8,2471.655,13.29,0.047,346.6
2023-12-18T08:46:03,42.805,6.029,-0.004,0.041,-0.022,107.0,106.0,103.0,13.4,1505.2,357.4,-0.7,1.8,2471.691,13.29,0.041,354.4
2023-12-18T08:49:03,42.805,6.029,-0.005,0.044,-0.012,106.0,106.0,103.0,13.4,1505.2,354.7,-0.7,1.8,2471.681,13.29,0.044,353.5
2023-12-18T08:52:03,42.805,6.029,-0.009,0.036,-0.004,106.0,106.0,104.0,13.3,1505.2,347.6,-0.8,1.8,2471.717,13.29,0.037,346.0
2023-12-18T08:55:03,42.805,6.029,0.007,0.052,-0.01,106.0,107.0,104.0,13.3,1505.2,352.7,-0.8,1.8,2471.653,13.29,0.052,7.7
2023-12-18T08:58:03,42.805,6.029,0.0,0.041,-0.004,105.0,106.0,104.0,13.3,1505.2,339.5,-0.8,1.8,2471.701,13.29,0.041,0.0
2023-12-18T09:04:03,42.805,6.029,0.005,0.033,0.009,107.0,106.0,103.0,13.4,1505.2,356.8,-0.7,1.8,2471.787,13.29,0.033,8.6
2023-12-18T09:07:03,42.805,6.029,0.014,0.036,0.0,108.0,106.0,103.0,13.3,1505.2,2.4,-0.7,1.8,2471.733,13.29,0.038,21.2
2023-12-18T09:10:03,42.805,6.029,-0.025,0.026,-0.02,106.0,106.0,103.0,13.3,1505.2,342.6,-0.8,1.8,2471.714,13.29,0.036,316.1
2023-12-18T09:13:03,42.805,6.029,-0.013,0.044,-0.016,107.0,106.0,103.0,13.4,1505.2,345.5,-0.7,1.8,2471.729,13.29,0.045,343.5
2023-12-18T09:16:03,42.805,6.029,0.009,0.027,-0.026,107.0,106.0,104.0,13.4,1505.2,357.0,-0.7,1.8,2471.768,13.29,0.028,18.4
2023-12-18T09:19:03,42.805,6.029,-0.003,0.016,-0.01,105.0,106.0,103.0,13.4,1505.2,353.5,-0.7,1.8,2471.758,13.29,0.016,349.4
2023-12-18T09:22:03,42.805,6.029,0.014,0.041,-0.022,106.0,106.0,103.0,13.4,1505.2,348.4,-0.8,1.8,2471.726,13.29,0.043,18.9
2023-12-18T09:25:03,42.805,6.029,0.0,0.02,-0.017,107.0,106.0,103.0,13.4,1505.2,355.6,-0.8,1.8,2471.749,13.29,0.02,0.0
2023-12-18T09:28:03,42.805,6.029,0.007,0.034,-0.023,107.0,106.0,102.0,13.4,1505.2,341.0,-0.8,1.8,2471.737,13.29,0.034,11.6
2023-12-18T09:31:03,42.805,6.029,0.0,-0.005,-0.04,106.0,106.0,103.0,13.4,1505.2,351.8,-0.8,1.8,2471.775,13.29,0.005,180.0
2023-12-18T09:34:03,42.805,6.029,-0.01,0.014,-0.028,105.0,106.0,104.0,13.4,1505.2,348.6,-0.7,1.8,2471.76,13.29,0.017,324.5
2023-12-18T09:37:03,42.805,6.029,0.012,0.031,-0.014,107.0,106.0,103.0,13.3,1505.2,350.6,-0.7,1.8,2471.758,13.29,0.033,21.2
2023-12-18T09:40:03,42.805,6.029,-0.042,0.046,-0.046,107.0,106.0,103.0,13.3,1505.2,339.4,-0.8,1.8,2471.754,13.29,0.062,317.6
2023-12-18T09:43:03,42.805,6.029,0.008,0.027,-0.021,106.0,107.0,103.0,13.3,1505.2,347.4,-0.8,1.8,2471.721,13.29,0.028,16.5
2023-12-18T09:46:03,42.805,6.029,-0.001,0.02,-0.005,106.0,106.0,103.0,13.3,1505.2,342.5,-0.8,1.8,2471.683,13.29,0.02,357.1
2023-12-18T09:49:03,42.805,6.029,0.004,0.019,-0.007,105.0,106.0,103.0,13.4,1505.2,344.6,-0.8,1.8,2471.74,13.29,0.019,11.9
2023-12-18T09:52:03,42.805,6.029,0.0,0.031,-0.024,107.0,106.0,104.0,13.3,1505.2,350.4,-0.7,1.8,2471.756,13.29,0.03,0.0
2023-12-18T09:55:03,42.805,6.029,0.0,0.049,-0.03,107.0,106.0,103.0,13.4,1505.2,344.3,-0.7,1.8,2471.748,13.29,0.049,0.0
2023-12-18T09:58:03,42.805,6.029,-0.019,0.029,-0.002,106.0,106.0,103.0,13.4,1505.2,346.8,-0.7,1.8,2471.77,13.29,0.034,326.8
2023-12-18T10:04:03,42.805,6.029,0.003,0.011,0.008,107.0,105.0,103.0,13.4,1505.2,351.6,-0.8,1.8,2471.766,13.29,0.011,15.3